QPF
0.00 0.00 0.00 0.01 0.01 0.03 0.09 0.10 0.04 0.03 0.04 0.05 0.07 0.07 0.08 0.12 0.14 0.15 0.15 0.13 0.11 0.10 0.13 0.14 0.16 0.12 0.10 0.09 0.09 0.09 0.09 0.09 0.07 0.09 0.09 0.08 0.07 0.06 0.05 0.04 0.05 0.05 0.04
0.00 0.00 0.00 0.00 0.01 0.02 0.05 0.04 0.03 0.04 0.05 0.05 0.06 0.06 0.06 0.09 0.12 0.15 0.16 0.13 0.09 0.09 0.11 0.13 0.14 0.13 0.13 0.12 0.10 0.09 0.10 0.09 0.08 0.10 0.10 0.09 0.08 0.06 0.04 0.04 0.05 0.03 0.04
0.01 0.00 0.00 0.00 0.00 0.01 0.02 0.02 0.04 0.05 0.07 0.08 0.07 0.07 0.08 0.09 0.12 0.14 0.15 0.12 0.09 0.10 0.11 0.13 0.13 0.14 0.13 0.12 0.09 0.09 0.11 0.11 0.08 0.08 0.11 0.13 0.10 0.06 0.04 0.03 0.04 0.04 0.04
0.00 0.00 0.00 0.00 0.00 0.01 0.01 0.03 0.03 0.05 0.06 0.07 0.08 0.09 0.10 0.10 0.10 0.10 0.12 0.11 0.09 0.09 0.10 0.11 0.11 0.10 0.08 0.08 0.06 0.08 0.10 0.10 0.10 0.09 0.08 0.11 0.10 0.08 0.07 0.06 0.04 0.05 0.04
0.00 0.00 0.00 0.00 0.00 0.01 0.02 0.03 0.03 0.05 0.06 0.07 0.09 0.10 0.09 0.09 0.08 0.07 0.07 0.07 0.05 0.05 0.05 0.06 0.07 0.07 0.06 0.06 0.05 0.07 0.07 0.07 0.07 0.08 0.09 0.09 0.09 0.08 0.09 0.10 0.07 0.06 0.05
0.00 0.00 0.00 0.00 0.01 0.01 0.02 0.03 0.04 0.06 0.07 0.09 0.08 0.08 0.07 0.06 0.06 0.07 0.08 0.08 0.06 0.05 0.04 0.05 0.06 0.06 0.06 0.06 0.05 0.06 0.06 0.06 0.06 0.06 0.08 0.10 0.09 0.08 0.09 0.10 0.07 0.05 0.05
0.00 0.00 0.00 0.00 0.00 0.00 0.01 0.03 0.03 0.06 0.08 0.07 0.08 0.07 0.05 0.05 0.05 0.05 0.06 0.06 0.05 0.04 0.05 0.06 0.06 0.06 0.06 0.05 0.06 0.06 0.06 0.06 0.06 0.07 0.08 0.08 0.07 0.05 0.06 0.07 0.06 0.07 0.06
0.00 0.00 0.00 0.00 0.00 0.00 0.00 0.01 0.01 0.03 0.04 0.04 0.06 0.05 0.05 0.05 0.04 0.04 0.03 0.03 0.02 0.02 0.02 0.03 0.03 0.03 0.04 0.04 0.06 0.05 0.05 0.07 0.08 0.07 0.08 0.07 0.06 0.06 0.05 0.06 0.08 0.10 0.08
0.00 0.00 0.00 0.00 0.00 0.00 0.00 0.00 0.01 0.01 0.02 0.03 0.03 0.03 0.04 0.03 0.02 0.02 0.02 0.02 0.02 0.02 0.02 0.02 0.02 0.04 0.04 0.04 0.05 0.05 0.06 0.09 0.08 0.07 0.07 0.06 0.04 0.04 0.03 0.04 0.06 0.08 0.08
0.00 0.00 0.00 0.00 0.00 0.00 0.00 0.00 0.00 0.01 0.01 0.02 0.02 0.02 0.02 0.01 0.01 0.01 0.01 0.02 0.02 0.02 0.02 0.02 0.03 0.04 0.04 0.04 0.07 0.07 0.08 0.07 0.07 0.06 0.07 0.07 0.05 0.05 0.04 0.04 0.04 0.05 0.05
0.00 0.00 0.00 0.00 0.00 0.00 0.00 0.00 0.00 0.01 0.01 0.02 0.01 0.01 0.01 0.01 0.01 0.01 0.02 0.02 0.03 0.03 0.03 0.04 0.05 0.04 0.04 0.06 0.06 0.05 0.07 0.05 0.05 0.05 0.05 0.05 0.06 0.06 0.04 0.04 0.04 0.05 0.04
0.00 0.00 0.00 0.00 0.00 0.00 0.00 0.00 0.00 0.01 0.01 0.01 0.00 0.01 0.01 0.01 0.01 0.01 0.01 0.01 0.03 0.03 0.03 0.04 0.05 0.04 0.04 0.05 0.04 0.05 0.06 0.05 0.05 0.05 0.05 0.04 0.04 0.05 0.05 0.04 0.04 0.03 0.04
0.00 0.00 0.00 0.00 0.01 0.01 0.00 0.00 0.00 0.01 0.02 0.01 0.01 0.01 0.01 0.01 0.01 0.01 0.01 0.01 0.02 0.02 0.02 0.03 0.04 0.05 0.05 0.04 0.03 0.03 0.03 0.03 0.03 0.04 0.05 0.05 0.05 0.04 0.05 0.04 0.04 0.03 0.03
0.00 0.00 0.00 0.00 0.01 0.01 0.01 0.01 0.01 0.01 0.01 0.01 0.01 0.01 0.01 0.01 0.01 0.01 0.01 0.01 0.01 0.01 0.02 0.04 0.05 0.05 0.05 0.04 0.04 0.04 0.04 0.03 0.03 0.03 0.03 0.04 0.04 0.03 0.04 0.04 0.04 0.05 0.05
0.01 0.01 0.01 0.01 0.01 0.01 0.00 0.01 0.02 0.02 0.02 0.01 0.01 0.01 0.01 0.01 0.01 0.00 0.01 0.01 0.01 0.01 0.05 0.07 0.07 0.07 0.05 0.03 0.03 0.04 0.04 0.04 0.03 0.03 0.03 0.03 0.03 0.03 0.03 0.02 0.03 0.04 0.04
0.02 0.02 0.01 0.02 0.01 0.01 0.01 0.02 0.02 0.01 0.01 0.01 0.01 0.01 0.01 0.01 0.01 0.01 0.01 0.01 0.01 0.01 0.03 0.04 0.04 0.03 0.03 0.03 0.03 0.04 0.05 0.05 0.04 0.04 0.04 0.04 0.04 0.03 0.02 0.02 0.03 0.03 0.03
0.02 0.03 0.02 0.02 0.02 0.02 0.02 0.03 0.02 0.02 0.01 0.01 0.01 0.01 0.01 0.01 0.01 0.01 0.01 0.01 0.01 0.01 0.01 0.01 0.02 0.01 0.01 0.01 0.01 0.02 0.02 0.04 0.05 0.05 0.05 0.04 0.04 0.03 0.03 0.03 0.03 0.02 0.01
0.02 0.03 0.03 0.03 0.02 0.02 0.03 0.02 0.02 0.02 0.01 0.01 0.01 0.02 0.01 0.02 0.02 0.02 0.01 0.01 0.01 0.01 0.01 0.01 0.01 0.01 0.01 0.01 0.02 0.03 0.03 0.04 0.04 0.04 0.04 0.05 0.04 0.04 0.05 0.04 0.04 0.03 0.02
0.01 0.02 0.03 0.02 0.02 0.01 0.02 0.01 0.02 0.02 0.02 0.02 0.02 0.02 0.02 0.03 0.02 0.02 0.01 0.01 0.01 0.01 0.01 0.01 0.01 0.01 0.01 0.01 0.02 0.03 0.03 0.03 0.02 0.03 0.03 0.04 0.04 0.04 0.04 0.04 0.04 0.04 0.04
0.02 0.03 0.04 0.03 0.02 0.02 0.02 0.01 0.02 0.02 0.02 0.03 0.03 0.02 0.02 0.01 0.01 0.01 0.01 0.01 0.01 0.01 0.01 0.01 0.01 0.01 0.01 0.01 0.01 0.02 0.02 0.03 0.02 0.02 0.02 0.03 0.03 0.03 0.04 0.04 0.04 0.05 0.06
0.04 0.04 0.05 0.03 0.01 0.01 0.02 0.02 0.02 0.02 0.02 0.02 0.02 0.01 0.01 0.01 0.01 0.01 0.01 0.01 0.01 0.01 0.01 0.01 0.01 0.01 0.01 0.01 0.01 0.01 0.02 0.03 0.02 0.02 0.02 0.02 0.02 0.03 0.03 0.02 0.03 0.06 0.07
0.06 0.03 0.01 0.01 0.01 0.02 0.03 0.03 0.03 0.03 0.03 0.02 0.02 0.01 0.01 0.01 0.01 0.01 0.01 0.01 0.01 0.01 0.01 0.01 0.02 0.02 0.02 0.02 0.02 0.01 0.02 0.02 0.02 0.02 0.02 0.01 0.02 0.02 0.02 0.01 0.02 0.03 0.04
0.04 0.01 0.01 0.01 0.02 0.04 0.05 0.04 0.04 0.04 0.04 0.03 0.02 0.01 0.01 0.01 0.01 0.01 0.01 0.01 0.01 0.01 0.01 0.01 0.02 0.01 0.02 0.03 0.03 0.02 0.02 0.02 0.02 0.01 0.01 0.01 0.01 0.01 0.01 0.01 0.01 0.02 0.02
0.01 0.01 0.01 0.01 0.02 0.03 0.04 0.05 0.05 0.05 0.05 0.04 0.02 0.01 0.01 0.01 0.01 0.01 0.01 0.01 0.01 0.01 0.01 0.02 0.02 0.02 0.01 0.01 0.01 0.01 0.01 0.02 0.02 0.01 0.01 0.01 0.01 0.01 0.02 0.02 0.02 0.02 0.02
0.01 0.01 0.01 0.01 0.01 0.02 0.03 0.04 0.04 0.04 0.04 0.04 0.02 0.02 0.01 0.01 0.02 0.02 0.02 0.02 0.02 0.01 0.01 0.01 0.01 0.01 0.01 0.01 0.02 0.02 0.02 0.02 0.02 0.01 0.01 0.01 0.01 0.02 0.02 0.02 0.02 0.02 0.02
0.01 0.01 0.01 0.01 0.01 0.02 0.03 0.04 0.05 0.04 0.04 0.03 0.02 0.02 0.02 0.02 0.03 0.03 0.03 0.03 0.03 0.02 0.01 0.01 0.00 0.01 0.01 0.01 0.01 0.02 0.02 0.02 0.03 0.03 0.03 0.02 0.02 0.02 0.02 0.02 0.01 0.01 0.01
MSLP
1005.19 1005.54 1005.89 1006.22 1006.56 1006.92 1007.33 1007.80 1008.35 1008.96 1009.59 1010.22 1010.78 1011.24 1011.58 1011.79 1011.89 1011.90 1011.89 1011.88 1011.93 1012.04 1012.24 1012.50 1012.83 1013.18 1013.55 1013.92 1014.30 1014.69 1015.10 1015.54 1016.00 1016.49 1016.97 1017.43 1017.82 1018.13 1018.33 1018.42 1018.42 1018.35 1018.24
1004.49 1004.90 1005.33 1005.74 1006.14 1006.55 1007.00 1007.51 1008.09 1008.73 1009.41 1010.08 1010.69 1011.19 1011.56 1011.77 1011.85 1011.83 1011.78 1011.74 1011.76 1011.86 1012.06 1012.35 1012.69 1013.06 1013.44 1013.81 1014.17 1014.53 1014.91 1015.32 1015.78 1016.27 1016.78 1017.29 1017.74 1018.12 1018.38 1018.53 1018.57 1018.54 1018.46
1003.63 1004.14 1004.67 1005.20 1005.71 1006.21 1006.72 1007.27 1007.89 1008.56 1009.27 1009.97 1010.61 1011.14 1011.51 1011.73 1011.80 1011.77 1011.69 1011.63 1011.64 1011.74 1011.94 1012.24 1012.60 1012.98 1013.36 1013.71 1014.04 1014.36 1014.69 1015.07 1015.49 1015.98 1016.50 1017.04 1017.55 1017.99 1018.32 1018.54 1018.65 1018.68 1018.66
1002.66 1003.27 1003.95 1004.62 1005.27 1005.88 1006.48 1007.10 1007.75 1008.44 1009.17 1009.87 1010.52 1011.06 1011.44 1011.67 1011.74 1011.71 1011.63 1011.57 1011.57 1011.68 1011.89 1012.20 1012.57 1012.96 1013.33 1013.66 1013.96 1014.23 1014.51 1014.83 1015.21 1015.66 1016.18 1016.74 1017.28 1017.77 1018.18 1018.47 1018.66 1018.76 1018.81
1001.64 1002.37 1003.20 1004.05 1004.85 1005.59 1006.29 1006.96 1007.64 1008.34 1009.06 1009.76 1010.41 1010.95 1011.34 1011.58 1011.67 1011.66 1011.59 1011.54 1011.56 1011.68 1011.90 1012.22 1012.60 1012.99 1013.36 1013.67 1013.94 1014.17 1014.39 1014.65 1014.97 1015.38 1015.87 1016.41 1016.97 1017.50 1017.95 1018.32 1018.58 1018.76 1018.89
1000.66 1001.53 1002.51 1003.52 1004.47 1005.34 1006.13 1006.85 1007.54 1008.24 1008.94 1009.62 1010.25 1010.79 1011.20 1011.47 1011.59 1011.61 1011.59 1011.56 1011.60 1011.74 1011.97 1012.30 1012.69 1013.08 1013.44 1013.74 1013.98 1014.17 1014.34 1014.54 1014.81 1015.16 1015.59 1016.10 1016.65 1017.18 1017.67 1018.09 1018.42 1018.67 1018.87
999.83 1000.82 1001.95 1003.10 1004.19 1005.16 1006.00 1006.75 1007.44 1008.11 1008.77 1009.42 1010.04 1010.58 1011.02 1011.33 1011.50 1011.58 1011.60 1011.62 1011.69 1011.84 1012.09 1012.42 1012.80 1013.19 1013.54 1013.84 1014.06 1014.22 1014.36 1014.51 1014.71 1015.00 1015.37 1015.83 1016.33 1016.85 1017.35 1017.80 1018.18 1018.49 1018.76
999.21 1000.32 1001.57 1002.84 1004.02 1005.05 1005.92 1006.66 1007.32 1007.95 1008.56 1009.18 1009.78 1010.34 1010.81 1011.17 1011.42 1011.56 1011.65 1011.72 1011.82 1011.99 1012.23 1012.56 1012.93 1013.31 1013.66 1013.94 1014.16 1014.31 1014.42 1014.54 1014.69 1014.91 1015.22 1015.60 1016.06 1016.54 1017.02 1017.48 1017.89 1018.25 1018.57
998.86 1000.07 1001.42 1002.76 1003.98 1005.02 1005.88 1006.59 1007.19 1007.75 1008.31 1008.90 1009.49 1010.07 1010.59 1011.02 1011.34 1011.57 1011.72 1011.84 1011.97 1012.15 1012.39 1012.70 1013.05 1013.41 1013.75 1014.04 1014.25 1014.40 1014.51 1014.60 1014.72 1014.89 1015.13 1015.45 1015.84 1016.27 1016.73 1017.18 1017.60 1018.00 1018.36
998.78 1000.07 1001.48 1002.85 1004.06 1005.08 1005.88 1006.51 1007.04 1007.53 1008.04 1008.59 1009.18 1009.79 1010.37 1010.87 1011.28 1011.59 1011.82 1011.98 1012.14 1012.32 1012.54 1012.82 1013.15 1013.49 1013.82 1014.10 1014.33 1014.49 1014.61 1014.70 1014.79 1014.93 1015.12 1015.38 1015.71 1016.09 1016.51 1016.94 1017.37 1017.78 1018.18
998.94 1000.30 1001.72 1003.07 1004.24 1005.18 1005.90 1006.44 1006.89 1007.31 1007.77 1008.30 1008.90 1009.54 1010.17 1010.75 1011.25 1011.63 1011.92 1012.13 1012.30 1012.47 1012.68 1012.93 1013.22 1013.54 1013.85 1014.15 1014.39 1014.58 1014.71 1014.82 1014.92 1015.03 1015.19 1015.41 1015.69 1016.03 1016.41 1016.81 1017.23 1017.66 1018.07
999.27 1000.66 1002.07 1003.36 1004.45 1005.29 1005.91 1006.36 1006.73 1007.09 1007.52 1008.03 1008.64 1009.32 1010.01 1010.66 1011.22 1011.67 1012.01 1012.26 1012.44 1012.61 1012.79 1013.01 1013.28 1013.57 1013.88 1014.18 1014.45 1014.67 1014.84 1014.97 1015.08 1015.20 1015.34 1015.53 1015.77 1016.07 1016.41 1016.80 1017.20 1017.62 1018.04
999.66 1001.06 1002.42 1003.64 1004.63 1005.37 1005.90 1006.27 1006.57 1006.89 1007.30 1007.82 1008.44 1009.15 1009.89 1010.59 1011.20 1011.71 1012.09 1012.36 1012.56 1012.72 1012.89 1013.09 1013.34 1013.62 1013.93 1014.24 1014.52 1014.78 1014.98 1015.14 1015.28 1015.41 1015.54 1015.72 1015.93 1016.20 1016.51 1016.87 1017.26 1017.66 1018.07
1000.03 1001.40 1002.70 1003.82 1004.72 1005.37 1005.83 1006.14 1006.41 1006.72 1007.12 1007.65 1008.30 1009.03 1009.80 1010.53 1011.18 1011.72 1012.13 1012.43 1012.64 1012.81 1012.98 1013.17 1013.41 1013.69 1014.00 1014.32 1014.63 1014.90 1015.14 1015.33 1015.48 1015.62 1015.77 1015.93 1016.12 1016.36 1016.65 1016.98 1017.35 1017.73 1018.12
1000.28 1001.59 1002.81 1003.86 1004.67 1005.27 1005.68 1005.98 1006.26 1006.58 1007.00 1007.55 1008.22 1008.96 1009.74 1010.49 1011.16 1011.71 1012.14 1012.46 1012.69 1012.88 1013.06 1013.26 1013.51 1013.79 1014.11 1014.43 1014.75 1015.05 1015.30 1015.50 1015.67 1015.82 1015.96 1016.11 1016.29 1016.51 1016.78 1017.08 1017.42 1017.77 1018.13
1000.33 1001.58 1002.73 1003.71 1004.48 1005.06 1005.47 1005.79 1006.10 1006.46 1006.92 1007.50 1008.18 1008.94 1009.71 1010.45 1011.12 1011.67 1012.11 1012.45 1012.71 1012.92 1013.13 1013.36 1013.62 1013.91 1014.24 1014.57 1014.89 1015.18 1015.43 1015.63 1015.80 1015.94 1016.08 1016.22 1016.39 1016.60 1016.84 1017.12 1017.42 1017.75 1018.07
1000.16 1001.36 1002.46 1003.41 1004.16 1004.75 1005.21 1005.58 1005.96 1006.38 1006.88 1007.49 1008.18 1008.93 1009.69 1010.41 1011.06 1011.60 1012.05 1012.40 1012.69 1012.94 1013.18 1013.44 1013.72 1014.03 1014.36 1014.68 1014.99 1015.27 1015.50 1015.69 1015.84 1015.98 1016.10 1016.24 1016.40 1016.59 1016.82 1017.07 1017.35 1017.64 1017.93
999.81 1000.97 1002.05 1002.98 1003.76 1004.39 1004.91 1005.37 1005.82 1006.31 1006.87 1007.50 1008.20 1008.93 1009.66 1010.35 1010.97 1011.50 1011.95 1012.31 1012.63 1012.91 1013.19 1013.48 1013.79 1014.11 1014.43 1014.74 1015.03 1015.28 1015.48 1015.65 1015.78 1015.91 1016.03 1016.16 1016.32 1016.51 1016.72 1016.96 1017.22 1017.48 1017.73
999.37 1000.51 1001.58 1002.53 1003.35 1004.04 1004.63 1005.17 1005.70 1006.26 1006.86 1007.51 1008.20 1008.91 1009.60 1010.25 1010.84 1011.35 1011.78 1012.16 1012.50 1012.81 1013.13 1013.44 1013.77 1014.09 1014.41 1014.71 1014.97 1015.18 1015.36 1015.51 1015.63 1015.74 1015.86 1016.01 1016.17 1016.37 1016.59 1016.82 1017.06 1017.29 1017.51
998.94 1000.08 1001.16 1002.13 1002.99 1003.74 1004.40 1005.00 1005.59 1006.19 1006.82 1007.48 1008.15 1008.83 1009.48 1010.09 1010.64 1011.12 1011.55 1011.93 1012.28 1012.62 1012.95 1013.29 1013.62 1013.95 1014.26 1014.54 1014.78 1014.97 1015.13 1015.27 1015.39 1015.51 1015.65 1015.81 1016.00 1016.22 1016.45 1016.69 1016.92 1017.13 1017.31
998.67 999.81 1000.89 1001.88 1002.75 1003.53 1004.22 1004.86 1005.48 1006.10 1006.73 1007.38 1008.03 1008.66 1009.27 1009.84 1010.35 1010.81 1011.22 1011.60 1011.95 1012.30 1012.65 1012.99 1013.33 1013.66 1013.96 1014.23 1014.46 1014.65 1014.81 1014.95 1015.10 1015.25 1015.42 1015.62 1015.84 1016.09 1016.34 1016.58 1016.80 1016.99 1017.15
998.66 999.79 1000.85 1001.82 1002.68 1003.44 1004.12 1004.75 1005.36 1005.96 1006.57 1007.18 1007.80 1008.39 1008.96 1009.49 1009.97 1010.40 1010.79 1011.15 1011.51 1011.85 1012.19 1012.54 1012.88 1013.21 1013.51 1013.78 1014.03 1014.23 1014.42 1014.60 1014.78 1014.97 1015.19 1015.43 1015.69 1015.96 1016.23 1016.48 1016.69 1016.86 1016.99
999.00 1000.08 1001.08 1001.98 1002.78 1003.47 1004.09 1004.67 1005.22 1005.77 1006.33 1006.90 1007.46 1008.02 1008.54 1009.03 1009.48 1009.88 1010.25 1010.60 1010.94 1011.27 1011.61 1011.95 1012.30 1012.63 1012.94 1013.24 1013.51 1013.75 1013.98 1014.21 1014.44 1014.69 1014.96 1015.24 1015.53 1015.82 1016.09 1016.33 1016.53 1016.67 1016.76
999.69 1000.67 1001.57 1002.36 1003.03 1003.61 1004.13 1004.60 1005.06 1005.53 1006.02 1006.53 1007.05 1007.55 1008.04 1008.50 1008.91 1009.29 1009.64 1009.97 1010.28 1010.60 1010.93 1011.27 1011.61 1011.96 1012.29 1012.62 1012.93 1013.23 1013.52 1013.80 1014.09 1014.39 1014.69 1015.00 1015.31 1015.60 1015.85 1016.07 1016.23 1016.33 1016.38
1000.67 1001.52 1002.27 1002.89 1003.41 1003.84 1004.21 1004.56 1004.91 1005.28 1005.69 1006.13 1006.59 1007.05 1007.50 1007.92 1008.31 1008.66 1008.99 1009.29 1009.59 1009.89 1010.21 1010.54 1010.89 1011.25 1011.61 1011.98 1012.34 1012.69 1013.04 1013.38 1013.71 1014.04 1014.36 1014.67 1014.96 1015.22 1015.44 1015.61 1015.72 1015.78 1015.78
1001.84 1002.52 1003.08 1003.52 1003.86 1004.12 1004.34 1004.54 1004.78 1005.05 1005.38 1005.75 1006.15 1006.57 1006.98 1007.37 1007.73 1008.06 1008.36 1008.64 1008.91 1009.19 1009.49 1009.82 1010.17 1010.55 1010.94 1011.34 1011.75 1012.15 1012.53 1012.91 1013.26 1013.60 1013.91 1014.19 1014.44 1014.65 1014.80 1014.91 1014.96 1014.96 1014.93
Thickness
5827 5826 5822 5819 5815 5810 5806 5802 5799 5797 5796 5793 5789 5786 5784 5784 5783 5782 5781 5779 5777 5775 5773 5771 5769 5767 5764 5762 5760 5758 5756 5754 5754 5749 5745 5746 5748 5747 5746 5744 5742 5741 5739
5826 5825 5824 5821 5816 5811 5807 5803 5800 5799 5796 5794 5792 5789 5788 5786 5784 5783 5781 5779 5777 5776 5775 5771 5769 5768 5765 5762 5760 5758 5755 5754 5754 5748 5741 5736 5738 5741 5744 5742 5740 5739 5738
5827 5826 5824 5822 5819 5814 5810 5807 5803 5800 5798 5796 5794 5791 5788 5785 5783 5780 5779 5779 5778 5776 5774 5772 5770 5768 5765 5762 5760 5758 5755 5751 5753 5752 5745 5737 5731 5733 5736 5738 5737 5736 5734
5835 5830 5827 5823 5821 5818 5815 5810 5805 5802 5800 5797 5793 5789 5784 5781 5780 5780 5779 5779 5778 5776 5774 5772 5770 5767 5765 5762 5761 5759 5757 5753 5749 5751 5751 5748 5744 5734 5727 5730 5732 5732 5731
5840 5835 5831 5827 5825 5823 5818 5812 5807 5803 5800 5797 5794 5790 5786 5785 5784 5782 5779 5778 5777 5775 5774 5771 5769 5767 5764 5763 5761 5759 5757 5754 5751 5749 5748 5747 5744 5741 5730 5722 5724 5726 5727
5845 5840 5836 5831 5827 5824 5820 5814 5807 5803 5801 5797 5795 5791 5786 5784 5782 5779 5777 5776 5776 5775 5774 5772 5770 5767 5765 5762 5760 5758 5756 5753 5751 5749 5748 5745 5741 5737 5733 5725 5722 5721 5722
5847 5841 5834 5829 5825 5822 5819 5815 5808 5802 5801 5798 5795 5792 5788 5785 5782 5780 5778 5776 5774 5773 5773 5772 5769 5766 5764 5762 5760 5757 5755 5753 5750 5748 5746 5745 5743 5742 5737 5729 5724 5720 5719
5849 5842 5837 5832 5826 5823 5820 5815 5809 5803 5801 5798 5794 5793 5790 5787 5784 5782 5780 5777 5775 5774 5773 5771 5769 5766 5764 5762 5760 5757 5754 5752 5749 5748 5746 5743 5742 5741 5738 5732 5725 5718 5716
5849 5844 5840 5835 5829 5824 5821 5817 5810 5805 5801 5798 5795 5792 5790 5787 5784 5783 5780 5778 5776 5775 5772 5770 5768 5766 5763 5761 5758 5755 5753 5750 5749 5747 5745 5743 5741 5740 5738 5735 5730 5721 5712
5848 5845 5841 5836 5832 5828 5823 5819 5813 5807 5803 5800 5797 5794 5790 5788 5785 5782 5779 5777 5775 5773 5771 5768 5766 5764 5762 5760 5757 5753 5751 5749 5747 5745 5743 5740 5739 5738 5736 5733 5730 5726 5719
5847 5845 5841 5838 5834 5830 5824 5818 5813 5807 5803 5800 5797 5794 5790 5788 5785 5781 5779 5777 5774 5772 5769 5766 5764 5761 5759 5757 5754 5751 5748 5745 5743 5742 5740 5737 5736 5734 5733 5730 5727 5724 5719
5848 5845 5842 5838 5833 5828 5824 5818 5813 5807 5803 5800 5796 5792 5789 5786 5783 5780 5778 5775 5772 5770 5768 5765 5762 5759 5756 5753 5750 5748 5745 5742 5740 5738 5736 5734 5733 5730 5728 5726 5722 5720 5716
5845 5842 5838 5833 5829 5824 5822 5817 5813 5808 5804 5800 5795 5790 5787 5784 5780 5778 5775 5773 5770 5768 5765 5762 5758 5755 5752 5750 5747 5744 5741 5739 5737 5735 5732 5729 5727 5725 5723 5721 5718 5715 5713
5839 5836 5832 5829 5826 5822 5819 5814 5812 5809 5804 5799 5793 5788 5785 5782 5779 5776 5773 5770 5767 5764 5761 5758 5755 5752 5749 5746 5743 5740 5737 5735 5733 5731 5728 5725 5723 5720 5718 5716 5713 5711 5707
5832 5830 5826 5824 5822 5819 5816 5813 5810 5807 5803 5797 5790 5786 5783 5780 5777 5773 5770 5767 5764 5761 5757 5754 5751 5749 5745 5741 5737 5735 5733 5730 5727 5725 5724 5721 5718 5716 5714 5712 5708 5706 5702
5827 5826 5823 5820 5817 5816 5813 5809 5806 5803 5800 5793 5788 5785 5781 5777 5773 5769 5766 5762 5759 5756 5753 5749 5746 5743 5740 5735 5732 5730 5728 5726 5723 5720 5718 5716 5714 5711 5708 5705 5703 5700 5696
5823 5821 5818 5815 5813 5813 5810 5805 5803 5800 5795 5789 5784 5781 5777 5772 5769 5767 5762 5758 5754 5751 5747 5744 5741 5736 5731 5729 5727 5724 5722 5721 5719 5716 5714 5713 5710 5706 5703 5700 5697 5694 5691
5817 5814 5813 5811 5811 5810 5807 5803 5799 5794 5789 5784 5781 5777 5772 5767 5764 5761 5756 5753 5749 5745 5742 5739 5735 5730 5726 5723 5721 5718 5717 5716 5714 5712 5709 5706 5702 5700 5696 5694 5692 5688 5686
5813 5811 5811 5809 5807 5805 5802 5798 5792 5788 5783 5779 5776 5773 5768 5763 5758 5754 5751 5748 5744 5740 5737 5734 5730 5726 5721 5718 5716 5712 5712 5710 5707 5706 5703 5700 5696 5692 5689 5687 5684 5681 5679
5807 5806 5805 5802 5798 5797 5795 5790 5784 5780 5776 5774 5771 5768 5764 5759 5754 5750 5746 5743 5740 5736 5733 5728 5725 5722 5717 5713 5710 5707 5706 5703 5701 5699 5696 5692 5689 5685 5683 5680 5677 5674 5672
5799 5798 5796 5793 5790 5790 5787 5780 5777 5774 5772 5770 5766 5762 5758 5754 5750 5745 5741 5738 5734 5730 5727 5723 5721 5717 5714 5708 5704 5701 5700 5698 5696 5693 5690 5685 5682 5679 5676 5673 5670 5667 5665
5788 5788 5785 5783 5783 5783 5778 5773 5770 5770 5767 5763 5759 5755 5752 5749 5745 5739 5735 5731 5728 5723 5720 5717 5714 5712 5708 5703 5699 5695 5693 5690 5689 5687 5684 5680 5676 5673 5670 5667 5664 5661 5658
5778 5779 5777 5775 5774 5774 5771 5766 5764 5763 5760 5755 5751 5748 5745 5741 5738 5734 5729 5725 5722 5718 5715 5712 5709 5706 5703 5698 5693 5689 5686 5684 5681 5680 5676 5673 5669 5666 5664 5661 5658 5655 5652
5768 5769 5767 5765 5764 5764 5763 5761 5759 5756 5751 5747 5743 5740 5737 5734 5730 5727 5724 5720 5716 5713 5709 5706 5704 5701 5697 5693 5688 5684 5680 5676 5673 5671 5668 5665 5663 5660 5657 5655 5653 5650 5648
5758 5759 5757 5755 5754 5755 5754 5753 5752 5748 5743 5740 5736 5732 5730 5727 5722 5719 5715 5714 5711 5709 5705 5702 5700 5696 5691 5686 5681 5678 5675 5672 5668 5663 5661 5659 5657 5654 5652 5651 5649 5646 5643
5748 5748 5748 5746 5745 5745 5744 5745 5744 5741 5736 5732 5729 5726 5723 5720 5716 5711 5707 5703 5701 5699 5697 5694 5692 5689 5684 5679 5675 5671 5668 5664 5660 5657 5656 5654 5652 5650 5648 5645 5643 5640 5637